This is the latest recevied weather packets stored in our database for station/object WB5CFT. If no packets are shown the sender has not sent any weather packets the latest 10 day(s).
| Time | Temp. | Humidity | Pressure | Rain* | Wind** | Luminosity | Snow |
|---|---|---|---|---|---|---|---|
| 1777944641 | 27.22° C | 24% | 1008.7 hPa | 0 mm | - | 5 W/m² | - |
| 1777944339 | 27.78° C | 24% | 1008.5 hPa | 0 mm | - | 8 W/m² | - |
| 1777944036 | 27.22° C | 23% | 1008.7 hPa | 0 mm | - | 11 W/m² | - |
| 1777943731 | 27.22° C | 24% | 1008.7 hPa | 0 mm | - | 16 W/m² | - |
| 1777943429 | 27.78° C | 24% | 1008.8 hPa | 0 mm | - | 21 W/m² | - |
| 1777943124 | 27.78° C | 23% | 1008.8 hPa | 0 mm | - | 25 W/m² | - |
| 1777942821 | 27.78° C | 22% | 1008.9 hPa | 0 mm | - | 36 W/m² | - |
| 1777942517 | 27.78° C | 23% | 1008.7 hPa | 0 mm | - | 38 W/m² | - |
| 1777942215 | 27.78° C | 22% | 1009 hPa | 0 mm | - | 41 W/m² | - |
| 1777941912 | 27.78° C | 22% | 1008.9 hPa | 0 mm | - | 48 W/m² | - |
| 1777941609 | 28.33° C | 22% | 1009 hPa | 0 mm | - | 54 W/m² | - |
| 1777941306 | 28.33° C | 21% | 1009.3 hPa | 0 mm | - | 52 W/m² | - |
| 1777941002 | 28.33° C | 21% | 1009.1 hPa | 0 mm | - | 60 W/m² | - |
| 1777940698 | 28.89° C | 21% | 1009.1 hPa | 0 mm | - | 86 W/m² | - |
| 1777940396 | 28.89° C | 21% | 1009.1 hPa | 0 mm | - | 91 W/m² | - |
| 1777940093 | 28.89° C | 20% | 1009.2 hPa | 0 mm | - | 100 W/m² | - |
| 1777939790 | 28.89° C | 20% | 1009.2 hPa | 0 mm | - | 102 W/m² | - |
| 1777939488 | 28.89° C | 20% | 1009.2 hPa | 0 mm | - | 93 W/m² | - |
| 1777939185 | 28.89° C | 20% | 1009.3 hPa | 0 mm | - | 113 W/m² | - |
| 1777938882 | 28.89° C | 19% | 1009.3 hPa | 0 mm | - | 158 W/m² | - |
| 1777938579 | 28.89° C | 19% | 1009.1 hPa | 0 mm | - | 172 W/m² | - |
| 1777938276 | 28.89° C | 19% | 1009.3 hPa | 0 mm | - | 187 W/m² | - |
| 1777937972 | 29.44° C | 18% | 1009.4 hPa | 0 mm | - | 171 W/m² | - |
| 1777937668 | 28.89° C | 19% | 1009.2 hPa | 0 mm | - | 200 W/m² | - |
| 1777937365 | 29.44° C | 18% | 1009.3 hPa | 0 mm | - | 99 W/m² | - |
* Rain latest hour (hover to see other rain measurements)
** Current wind speed in m/s (hover to see current wind gust speed)